This is the latest recevied weather packets stored in our database for station/object W7JLW. If no packets are shown the sender has not sent any weather packets the latest 1 day(s).
| Time | Temp. | Humidity | Pressure | Rain* | Wind** | Luminosity | Snow |
|---|---|---|---|---|---|---|---|
| 1778107385 | 29.44° C | 19% | 1012.5 hPa | 0 mm | - | - | - |
| 1778101984 | 27.78° C | 21% | 1014.1 hPa | 0 mm | - | - | - |
| 1778098264 | 27.22° C | 23% | 1014.7 hPa | 0 mm | - | - | - |
| 1778097604 | 26.67° C | 23% | 1015 hPa | 0 mm | - | - | - |
| 1778096764 | 27.22° C | 24% | 1015.1 hPa | 0 mm | - | - | - |
| 1778095564 | 26.67° C | 25% | 1015.4 hPa | 0 mm | - | - | - |
| 1778094663 | 26.67° C | 26% | 1015.6 hPa | 0 mm | - | - | - |
| 1778093824 | 26.11° C | 28% | 1015.6 hPa | 0 mm | - | - | - |
| 1778092204 | 24.44° C | 32% | 1016 hPa | 0 mm | - | - | - |
| 1778090704 | 23.33° C | 34% | 1016.3 hPa | 0 mm | - | - | - |
| 1778090404 | 23.33° C | 35% | 1016.4 hPa | 0 mm | - | - | - |
| 1778084104 | 20° C | 42% | 1016 hPa | 0 mm | - | - | - |
| 1778081163 | 18.33° C | 44% | 1015.9 hPa | 0 mm | - | - | - |
| 1778075764 | 13.89° C | 56% | 1015.4 hPa | 0 mm | - | - | - |
| 1778071443 | 12.22° C | 57% | 1014.7 hPa | 0 mm | - | - | - |
| 1778070604 | 12.22° C | 57% | 1014.6 hPa | 0 mm | - | - | - |
| 1778068863 | 12.22° C | 55% | 1014.5 hPa | 0 mm | - | - | - |
| 1778068204 | 12.22° C | 55% | 1014.4 hPa | 0 mm | - | - | - |
| 1778066284 | 12.78° C | 56% | 1014.3 hPa | 0 mm | - | - | - |
| 1778065383 | 12.78° C | 56% | 1014.2 hPa | 0 mm | - | - | - |
| 1778062324 | 13.89° C | 51% | 1014 hPa | 0 mm | - | - | - |
| 1778059683 | 15° C | 46% | 1014 hPa | 0 mm | - | - | - |
| 1778059143 | 15° C | 46% | 1013.9 hPa | 0 mm | - | - | - |
| 1778058843 | 15° C | 46% | 1013.9 hPa | 0 mm | - | - | - |
| 1778057523 | 15.56° C | 45% | 1014.2 hPa | 0 mm | - | - | - |
* Rain latest hour (hover to see other rain measurements)
** Current wind speed in m/s (hover to see current wind gust speed)